This is the latest recevied weather packets stored in our database for station/object VE9LJW. If no packets are shown the sender has not sent any weather packets the latest 10 day(s).
| Time | Temp. | Humidity | Pressure | Rain* | Wind** | Luminosity | Snow |
|---|---|---|---|---|---|---|---|
| 1777720830 | 8.33° C | 81% | 1011.1 hPa | 0 mm | - | 89 W/m² | - |
| 1777720527 | 7.78° C | 82% | 1011.2 hPa | 0 mm | - | 124 W/m² | - |
| 1777720225 | 7.78° C | 82% | 1011.1 hPa | 0 mm | - | 115 W/m² | - |
| 1777719922 | 7.78° C | 82% | 1011 hPa | 0 mm | - | 109 W/m² | - |
| 1777719620 | 7.78° C | 83% | 1010.7 hPa | 0 mm | - | 106 W/m² | - |
| 1777719316 | 7.78° C | 82% | 1010.8 hPa | 0 mm | - | 103 W/m² | - |
| 1777719014 | 7.78° C | 83% | 1010.8 hPa | 0 mm | - | 82 W/m² | - |
| 1777718711 | 7.78° C | 83% | 1010.7 hPa | 0 mm | - | 91 W/m² | - |
| 1777718409 | 7.78° C | 82% | 1010.8 hPa | 0 mm | - | 82 W/m² | - |
| 1777718106 | 7.78° C | 83% | 1010.7 hPa | 0 mm | - | 72 W/m² | - |
| 1777717804 | 7.78° C | 83% | 1010.6 hPa | 0 mm | - | 57 W/m² | - |
| 1777717500 | 7.78° C | 83% | 1010.8 hPa | 0 mm | - | 45 W/m² | - |
| 1777717196 | 7.78° C | 84% | 1010.7 hPa | 0 mm | - | 42 W/m² | - |
| 1777716895 | 6.67° C | 85% | 1010.5 hPa | 0 mm | - | 38 W/m² | - |
| 1777716593 | 6.67° C | 86% | 1010.2 hPa | 0 mm | - | 34 W/m² | - |
| 1777716291 | 6.67° C | 87% | 1010.3 hPa | 0 mm | - | 31 W/m² | - |
| 1777715989 | 6.67° C | 86% | 1010.4 hPa | 0 mm | - | 28 W/m² | - |
| 1777715686 | 6.11° C | 87% | 1010 hPa | 0 mm | - | 26 W/m² | - |
| 1777715384 | 6.11° C | 88% | 1010.1 hPa | 0 mm | - | 21 W/m² | - |
| 1777715081 | 5.56° C | 89% | 1009.9 hPa | 0 mm | - | 17 W/m² | - |
| 1777714779 | 5.56° C | 89% | 1009.8 hPa | 0 mm | - | 13 W/m² | - |
| 1777714478 | 5.56° C | 90% | 1009.7 hPa | 0 mm | - | 9 W/m² | - |
| 1777714174 | 5.56° C | 91% | 1009.6 hPa | 0 mm | - | 6 W/m² | - |
| 1777713872 | 5° C | 91% | 1009.5 hPa | 0 mm | - | 2 W/m² | - |
| 1777713570 | 5.56° C | 91% | 1009.4 hPa | 0 mm | - | 1 W/m² | - |
* Rain latest hour (hover to see other rain measurements)
** Current wind speed in m/s (hover to see current wind gust speed)